Location: Karcze
(52.0945°N, 22.4786°E)
Time: 22:30:04
(UTC+00:00)

Transit 4A - Pass Details

Date: 03 August 2021
Orbit: 871 x 974 km, 66.8° (Epoch: 18 September)

Event Time Altitude Azimuth Distance (km) Brightness Sun altitude
Exits shadow 21:21:03 31° 142° (SE) 1,486 8.4 -18.7°
Maximum altitude 21:22:25 35° 114° (ESE) 1,378 8.5 -18.8°
Drops below altitude 10° 21:27:38 10° 51° (NE) 2,528 10.4 -19.1°
Sets 21:30:17 0° 43° (NE) 3,470 11.3 -19.2°
